QPF
0.00 0.00 0.01 0.03 0.05 0.11 0.12 0.23 0.34 0.37 0.30 0.17 0.09 0.05 0.00 0.00 0.00 0.00 0.00 0.00 0.00 0.00 0.00 0.00 0.00 0.00 0.00 0.00 0.00 0.00 0.00 0.00 0.00 0.00 0.00 0.00 0.00 0.00 0.00 0.00 0.00 0.00 0.00
0.01 0.00 0.00 0.01 0.04 0.12 0.19 0.33 0.33 0.24 0.15 0.07 0.03 0.02 0.01 0.00 0.00 0.00 0.00 0.00 0.00 0.00 0.00 0.00 0.00 0.00 0.00 0.00 0.00 0.00 0.00 0.00 0.00 0.00 0.00 0.00 0.00 0.00 0.00 0.00 0.00 0.00 0.00
0.03 0.01 0.02 0.05 0.09 0.15 0.25 0.33 0.35 0.30 0.21 0.11 0.04 0.01 0.00 0.00 0.00 0.00 0.00 0.00 0.00 0.00 0.00 0.00 0.00 0.00 0.00 0.00 0.00 0.00 0.00 0.00 0.00 0.00 0.00 0.00 0.00 0.00 0.00 0.00 0.00 0.00 0.00
0.04 0.02 0.02 0.05 0.07 0.08 0.14 0.21 0.23 0.25 0.22 0.07 0.02 0.00 0.00 0.00 0.00 0.00 0.00 0.00 0.00 0.00 0.00 0.00 0.00 0.00 0.00 0.00 0.00 0.00 0.00 0.00 0.00 0.00 0.00 0.00 0.00 0.00 0.00 0.00 0.00 0.00 0.00
0.00 0.01 0.03 0.05 0.06 0.10 0.10 0.14 0.16 0.09 0.04 0.01 0.00 0.00 0.00 0.00 0.00 0.00 0.00 0.00 0.00 0.00 0.00 0.00 0.00 0.00 0.00 0.00 0.00 0.00 0.00 0.00 0.00 0.00 0.00 0.00 0.00 0.00 0.00 0.00 0.00 0.00 0.00
0.02 0.00 0.02 0.09 0.13 0.14 0.18 0.18 0.13 0.06 0.02 0.00 0.00 0.00 0.00 0.00 0.00 0.00 0.00 0.00 0.00 0.00 0.00 0.00 0.00 0.00 0.00 0.00 0.00 0.00 0.00 0.00 0.00 0.00 0.00 0.00 0.00 0.00 0.00 0.00 0.00 0.00 0.00
0.13 0.11 0.07 0.15 0.14 0.14 0.10 0.07 0.06 0.05 0.02 0.00 0.00 0.01 0.00 0.00 0.00 0.00 0.00 0.00 0.00 0.00 0.00 0.00 0.00 0.00 0.00 0.00 0.00 0.00 0.00 0.00 0.00 0.00 0.00 0.00 0.00 0.00 0.00 0.00 0.00 0.00 0.00
0.01 0.05 0.10 0.14 0.12 0.07 0.04 0.02 0.02 0.00 0.00 0.00 0.00 0.01 0.02 0.01 0.01 0.00 0.00 0.00 0.00 0.00 0.00 0.00 0.00 0.00 0.00 0.00 0.00 0.00 0.00 0.00 0.00 0.00 0.00 0.00 0.00 0.00 0.00 0.00 0.00 0.00 0.00
0.00 0.00 0.01 0.04 0.06 0.05 0.03 0.00 0.00 0.00 0.00 0.00 0.00 0.00 0.02 0.02 0.01 0.00 0.00 0.00 0.00 0.00 0.00 0.00 0.00 0.00 0.00 0.00 0.00 0.00 0.00 0.00 0.00 0.00 0.00 0.00 0.00 0.00 0.00 0.00 0.00 0.00 0.00
0.00 0.00 0.00 0.00 0.00 0.01 0.02 0.02 0.01 0.00 0.00 0.01 0.01 0.01 0.03 0.04 0.02 0.00 0.00 0.00 0.00 0.00 0.00 0.00 0.00 0.00 0.00 0.00 0.00 0.00 0.00 0.00 0.00 0.00 0.00 0.00 0.00 0.00 0.00 0.00 0.00 0.00 0.00
0.00 0.00 0.00 0.00 0.00 0.01 0.00 0.01 0.02 0.01 0.01 0.03 0.05 0.08 0.08 0.05 0.03 0.00 0.00 0.00 0.00 0.00 0.00 0.00 0.00 0.00 0.00 0.00 0.00 0.00 0.00 0.00 0.00 0.00 0.00 0.00 0.00 0.00 0.00 0.00 0.00 0.00 0.00
0.00 0.00 0.00 0.00 0.00 0.00 0.00 0.01 0.04 0.03 0.02 0.05 0.09 0.12 0.12 0.10 0.03 0.00 0.00 0.00 0.00 0.00 0.00 0.00 0.00 0.00 0.00 0.00 0.00 0.00 0.00 0.00 0.00 0.00 0.00 0.00 0.00 0.00 0.00 0.00 0.00 0.00 0.00
0.00 0.00 0.00 0.00 0.00 0.00 0.00 0.01 0.08 0.09 0.05 0.06 0.08 0.09 0.11 0.11 0.06 0.02 0.00 0.00 0.00 0.00 0.00 0.00 0.00 0.00 0.00 0.00 0.00 0.00 0.00 0.00 0.00 0.00 0.00 0.00 0.00 0.00 0.00 0.00 0.00 0.00 0.00
0.00 0.00 0.00 0.00 0.00 0.00 0.00 0.02 0.06 0.08 0.06 0.06 0.07 0.11 0.17 0.21 0.12 0.05 0.01 0.00 0.00 0.00 0.00 0.00 0.00 0.00 0.00 0.00 0.00 0.00 0.00 0.00 0.00 0.00 0.00 0.00 0.00 0.00 0.00 0.00 0.00 0.00 0.00
0.00 0.00 0.00 0.00 0.00 0.00 0.02 0.05 0.07 0.06 0.03 0.05 0.09 0.13 0.19 0.18 0.11 0.04 0.02 0.00 0.00 0.00 0.00 0.00 0.00 0.00 0.00 0.00 0.00 0.00 0.00 0.00 0.00 0.00 0.00 0.00 0.00 0.00 0.00 0.00 0.00 0.00 0.00
0.00 0.00 0.00 0.00 0.01 0.02 0.04 0.10 0.13 0.11 0.14 0.17 0.19 0.20 0.17 0.10 0.06 0.02 0.01 0.00 0.00 0.00 0.00 0.00 0.00 0.00 0.00 0.00 0.00 0.00 0.00 0.00 0.00 0.00 0.00 0.00 0.00 0.00 0.00 0.00 0.00 0.00 0.00
0.00 0.00 0.00 0.01 0.01 0.03 0.05 0.06 0.07 0.14 0.16 0.16 0.16 0.11 0.05 0.02 0.01 0.01 0.00 0.00 0.00 0.00 0.00 0.00 0.00 0.00 0.00 0.00 0.00 0.00 0.00 0.00 0.00 0.00 0.00 0.00 0.00 0.00 0.00 0.00 0.00 0.00 0.00
0.00 0.01 0.00 0.01 0.02 0.03 0.04 0.04 0.05 0.06 0.07 0.10 0.12 0.07 0.04 0.02 0.02 0.01 0.00 0.02 0.03 0.01 0.00 0.00 0.00 0.00 0.00 0.00 0.00 0.00 0.00 0.00 0.00 0.00 0.00 0.00 0.00 0.00 0.00 0.00 0.00 0.00 0.00
0.01 0.01 0.01 0.02 0.02 0.02 0.02 0.04 0.06 0.07 0.07 0.10 0.12 0.12 0.08 0.04 0.02 0.02 0.02 0.02 0.01 0.00 0.00 0.00 0.00 0.00 0.00 0.00 0.00 0.00 0.00 0.00 0.00 0.00 0.00 0.00 0.00 0.00 0.00 0.00 0.00 0.00 0.00
0.03 0.03 0.02 0.02 0.02 0.02 0.04 0.07 0.06 0.07 0.08 0.07 0.05 0.04 0.03 0.02 0.02 0.01 0.01 0.00 0.00 0.00 0.00 0.00 0.00 0.00 0.00 0.00 0.00 0.00 0.00 0.00 0.00 0.00 0.00 0.00 0.00 0.00 0.00 0.00 0.00 0.00 0.00
0.03 0.03 0.04 0.06 0.07 0.06 0.07 0.08 0.08 0.06 0.04 0.03 0.03 0.01 0.00 0.00 0.00 0.00 0.00 0.00 0.00 0.00 0.00 0.00 0.00 0.00 0.00 0.00 0.00 0.00 0.00 0.00 0.00 0.00 0.00 0.00 0.00 0.00 0.00 0.00 0.00 0.00 0.00
0.03 0.02 0.01 0.02 0.02 0.03 0.04 0.04 0.03 0.02 0.02 0.01 0.01 0.00 0.00 0.00 0.00 0.00 0.00 0.00 0.00 0.00 0.00 0.00 0.00 0.00 0.00 0.00 0.00 0.00 0.00 0.00 0.00 0.00 0.00 0.00 0.00 0.00 0.00 0.00 0.00 0.00 0.00
0.02 0.01 0.00 0.00 0.00 0.00 0.00 0.00 0.00 0.00 0.00 0.00 0.00 0.00 0.01 0.01 0.01 0.00 0.00 0.00 0.00 0.00 0.00 0.00 0.00 0.00 0.00 0.00 0.00 0.00 0.00 0.00 0.00 0.00 0.00 0.00 0.00 0.00 0.00 0.00 0.00 0.00 0.00
0.00 0.00 0.00 0.00 0.00 0.00 0.00 0.00 0.00 0.00 0.00 0.00 0.00 0.01 0.01 0.01 0.01 0.01 0.00 0.01 0.01 0.01 0.00 0.00 0.00 0.00 0.00 0.00 0.00 0.00 0.00 0.00 0.00 0.00 0.00 0.00 0.00 0.00 0.00 0.00 0.00 0.00 0.00
0.00 0.00 0.00 0.00 0.00 0.00 0.00 0.00 0.00 0.00 0.00 0.00 0.00 0.00 0.01 0.01 0.01 0.00 0.00 0.00 0.00 0.00 0.00 0.00 0.00 0.00 0.00 0.00 0.00 0.00 0.00 0.00 0.00 0.00 0.00 0.00 0.00 0.00 0.00 0.00 0.00 0.00 0.00
0.03 0.01 0.00 0.00 0.00 0.00 0.00 0.00 0.00 0.00 0.00 0.00 0.00 0.00 0.00 0.00 0.00 0.00 0.00 0.00 0.00 0.00 0.00 0.00 0.00 0.00 0.00 0.00 0.00 0.00 0.00 0.00 0.00 0.00 0.00 0.00 0.00 0.00 0.00 0.00 0.00 0.00 0.00
MSLP
1001.20 1002.44 1003.28 1003.97 1005.01 1006.48 1007.99 1009.22 1010.18 1011.12 1012.36 1014.15 1015.46 1016.09 1017.38 1018.19 1018.62 1018.36 1019.38 1019.78 1020.18 1021.25 1020.93 1022.04 1023.19 1023.52 1023.59 1023.80 1024.20 1024.08 1024.23 1024.23 1024.03 1025.79 1026.58 1027.28 1027.36 1027.24 1027.41 1027.27 1027.24 1027.34 1027.44
1001.12 1002.15 1003.10 1004.04 1005.12 1006.34 1007.64 1008.89 1009.94 1011.86 1013.29 1013.97 1015.27 1015.51 1017.20 1017.71 1018.75 1018.99 1018.58 1020.06 1020.61 1020.50 1021.99 1022.92 1023.33 1023.62 1023.64 1024.16 1024.18 1024.18 1024.40 1024.88 1024.36 1025.25 1026.24 1026.73 1027.16 1027.64 1027.82 1027.65 1027.33 1027.46 1027.33
1001.91 1002.49 1003.38 1004.27 1005.34 1006.36 1007.56 1008.59 1010.00 1011.47 1012.96 1014.90 1013.94 1015.66 1016.80 1017.56 1018.73 1019.57 1019.11 1019.85 1020.59 1021.09 1022.62 1023.17 1023.50 1023.49 1023.86 1024.29 1024.58 1024.67 1024.80 1025.09 1025.18 1024.94 1025.97 1026.98 1027.28 1027.66 1027.65 1027.87 1027.80 1027.55 1027.29
1002.54 1003.11 1003.73 1004.53 1005.33 1006.16 1007.23 1008.27 1009.29 1010.44 1012.00 1013.00 1014.68 1015.19 1016.58 1017.81 1018.44 1019.40 1019.38 1020.01 1020.33 1021.75 1022.76 1023.40 1023.72 1023.78 1024.25 1024.63 1024.84 1025.17 1025.41 1025.21 1025.23 1025.39 1026.01 1027.02 1027.62 1027.85 1027.94 1027.82 1027.37 1027.49 1027.48
1003.02 1003.52 1004.15 1004.82 1005.58 1006.43 1007.56 1008.61 1009.50 1010.34 1012.24 1014.10 1014.37 1014.93 1016.79 1017.63 1018.47 1019.07 1019.23 1019.81 1020.91 1021.97 1022.98 1023.65 1024.12 1024.35 1024.57 1024.89 1025.08 1025.52 1025.95 1025.30 1025.21 1025.48 1026.25 1027.20 1027.44 1027.57 1028.17 1028.50 1027.79 1027.61 1027.86
1003.41 1004.01 1004.51 1005.17 1005.91 1006.85 1007.61 1008.72 1009.98 1010.87 1011.76 1014.26 1014.39 1014.39 1016.62 1017.86 1018.72 1018.46 1019.67 1019.96 1020.87 1022.11 1022.97 1023.62 1024.23 1024.71 1024.75 1025.28 1025.91 1026.30 1025.62 1025.56 1025.40 1025.69 1026.37 1026.97 1027.76 1027.85 1028.28 1028.17 1027.72 1027.47 1027.17
1003.60 1003.96 1004.60 1005.63 1006.23 1007.01 1007.86 1008.53 1010.00 1011.22 1012.12 1013.50 1014.39 1014.60 1016.38 1017.06 1018.04 1018.67 1019.35 1019.91 1021.16 1022.23 1022.81 1023.35 1024.09 1024.69 1024.65 1025.21 1026.12 1026.46 1026.50 1026.41 1025.58 1025.73 1026.43 1026.90 1027.45 1027.78 1028.18 1027.67 1027.42 1027.35 1027.62
1003.46 1004.38 1004.48 1005.13 1006.39 1007.33 1007.89 1009.02 1010.12 1011.22 1012.45 1013.53 1014.49 1015.26 1016.59 1017.39 1017.84 1018.61 1018.80 1019.75 1021.75 1022.73 1023.08 1023.34 1023.82 1024.84 1024.69 1025.11 1025.78 1026.15 1026.82 1026.95 1026.87 1026.76 1027.26 1027.65 1027.95 1027.96 1027.90 1027.34 1027.34 1027.34 1027.61
1003.28 1004.14 1004.66 1005.72 1006.19 1007.14 1007.99 1009.09 1010.10 1011.29 1012.42 1013.37 1014.22 1015.28 1016.67 1017.79 1017.86 1018.64 1018.60 1020.10 1021.53 1022.60 1023.30 1023.49 1024.00 1024.71 1025.04 1025.38 1026.00 1026.51 1026.83 1026.91 1027.42 1027.66 1027.71 1028.30 1028.28 1028.17 1028.09 1027.45 1027.29 1027.00 1027.44
1003.35 1003.94 1004.65 1005.37 1006.45 1007.27 1008.12 1008.93 1009.99 1011.12 1012.22 1013.35 1014.51 1015.70 1016.44 1016.96 1017.89 1019.01 1019.25 1019.83 1021.05 1022.61 1023.65 1023.74 1024.21 1024.68 1024.70 1025.58 1025.61 1026.20 1026.61 1026.73 1026.99 1027.52 1027.90 1028.42 1028.76 1028.62 1028.46 1028.06 1027.58 1027.20 1027.52
1003.63 1004.15 1004.94 1005.61 1006.38 1007.31 1008.51 1009.52 1010.17 1011.33 1012.60 1013.95 1015.02 1015.91 1016.47 1017.12 1017.78 1018.72 1019.58 1019.98 1021.04 1022.36 1023.34 1023.79 1024.13 1024.70 1025.06 1025.50 1025.80 1026.23 1026.44 1026.84 1026.79 1027.09 1027.81 1028.25 1028.63 1028.72 1028.76 1028.80 1028.64 1028.03 1027.98
1003.42 1004.06 1005.33 1005.96 1006.35 1007.36 1008.56 1009.75 1010.86 1011.64 1012.85 1013.92 1014.93 1015.91 1016.63 1017.11 1017.79 1018.81 1019.54 1020.24 1021.12 1021.79 1022.70 1023.37 1023.81 1024.27 1024.57 1025.64 1026.26 1026.58 1027.00 1027.09 1026.45 1026.98 1027.47 1027.94 1028.23 1028.45 1028.72 1028.83 1029.01 1028.97 1028.90
1003.95 1004.42 1005.37 1006.21 1007.02 1007.78 1008.51 1009.74 1010.78 1011.72 1012.62 1013.81 1014.82 1015.80 1016.57 1017.50 1018.04 1018.83 1019.70 1020.69 1021.36 1021.91 1022.37 1022.90 1023.61 1024.02 1024.91 1025.77 1026.03 1026.61 1027.30 1026.65 1026.32 1026.56 1027.01 1027.62 1028.02 1028.38 1028.91 1028.97 1029.03 1029.16 1029.36
1004.55 1005.05 1005.70 1006.47 1007.31 1008.25 1009.05 1009.77 1010.31 1011.62 1012.73 1013.09 1014.08 1015.21 1016.31 1017.23 1017.78 1018.51 1019.62 1020.49 1021.29 1022.08 1022.85 1022.99 1023.53 1023.83 1024.51 1025.32 1025.98 1026.67 1026.39 1026.40 1026.18 1026.14 1026.75 1027.47 1027.87 1027.99 1027.92 1027.96 1028.22 1028.43 1028.48
1005.01 1005.39 1005.92 1006.78 1007.40 1008.54 1009.43 1009.65 1010.16 1011.01 1011.35 1011.67 1012.94 1014.25 1015.42 1016.42 1017.13 1017.80 1019.00 1019.93 1020.73 1021.65 1022.52 1023.13 1023.98 1024.30 1024.79 1025.25 1025.97 1026.26 1026.06 1026.26 1026.25 1026.51 1026.87 1027.26 1027.46 1027.67 1027.82 1027.94 1027.82 1028.04 1028.06
1005.19 1005.69 1006.08 1006.69 1007.80 1008.66 1009.42 1010.33 1010.55 1010.99 1012.07 1012.24 1013.21 1014.08 1014.81 1016.10 1016.99 1017.61 1018.70 1019.90 1020.69 1021.56 1022.09 1022.84 1023.64 1023.85 1024.27 1024.81 1025.44 1025.61 1025.70 1025.96 1026.05 1026.46 1026.79 1026.99 1027.08 1027.47 1027.51 1027.79 1027.92 1028.01 1027.69
1005.54 1006.08 1006.65 1007.07 1007.95 1008.51 1009.09 1009.61 1010.40 1011.63 1012.19 1012.90 1013.79 1014.34 1015.17 1015.84 1016.58 1017.36 1018.35 1019.51 1020.60 1021.38 1021.85 1022.66 1023.15 1023.27 1023.97 1024.45 1024.77 1024.99 1025.31 1025.63 1026.13 1026.34 1026.51 1026.76 1027.11 1027.21 1027.73 1027.51 1027.62 1027.71 1027.90
1006.13 1006.51 1006.93 1007.52 1008.03 1008.42 1008.69 1009.54 1010.25 1010.86 1012.00 1013.37 1014.18 1014.67 1015.36 1016.06 1016.56 1017.49 1018.32 1019.27 1020.28 1021.16 1021.58 1022.13 1022.51 1023.02 1023.69 1023.92 1024.20 1024.55 1025.03 1025.56 1025.81 1026.07 1026.55 1026.79 1027.05 1027.01 1027.21 1027.52 1027.73 1027.89 1027.90
1006.65 1006.85 1007.12 1007.54 1008.03 1008.59 1009.06 1009.78 1010.47 1011.25 1012.12 1013.15 1014.08 1014.78 1015.27 1015.89 1016.61 1017.49 1018.26 1018.75 1019.58 1020.54 1021.26 1021.63 1022.19 1022.75 1023.18 1023.49 1023.84 1024.22 1024.66 1025.10 1025.47 1025.95 1026.40 1027.01 1027.20 1026.88 1026.63 1027.32 1027.54 1028.05 1028.31
1006.93 1007.29 1007.31 1007.74 1008.50 1008.98 1009.41 1010.04 1010.55 1011.42 1012.38 1012.95 1013.63 1014.34 1015.11 1015.74 1016.44 1017.24 1018.01 1018.77 1019.46 1020.08 1020.74 1021.15 1021.65 1022.14 1022.59 1023.00 1023.40 1023.84 1024.40 1024.90 1025.31 1025.93 1026.22 1026.64 1026.95 1026.98 1027.14 1027.19 1027.59 1027.70 1027.96
1007.36 1007.84 1008.31 1008.39 1008.77 1009.05 1009.53 1009.95 1011.06 1011.66 1012.19 1013.11 1013.78 1014.42 1015.04 1015.64 1016.42 1017.14 1017.82 1018.74 1019.36 1019.88 1020.45 1020.90 1021.33 1021.71 1022.16 1022.55 1022.90 1023.34 1023.80 1024.41 1025.13 1025.43 1025.89 1026.35 1027.15 1026.92 1027.17 1027.33 1027.51 1027.75 1027.89
1007.70 1008.22 1008.43 1009.01 1009.33 1009.57 1009.98 1010.43 1011.12 1011.89 1012.54 1013.22 1013.97 1014.69 1015.33 1015.84 1016.42 1017.02 1017.80 1018.51 1019.13 1019.59 1020.08 1020.45 1020.75 1021.16 1021.62 1021.88 1022.31 1023.03 1023.72 1024.14 1024.62 1024.96 1025.81 1026.13 1026.67 1026.71 1027.20 1027.37 1027.52 1027.72 1027.98
1007.76 1008.40 1009.05 1009.70 1010.01 1010.32 1010.74 1011.27 1011.70 1012.17 1012.76 1013.34 1014.04 1014.70 1015.29 1015.84 1016.49 1017.06 1017.66 1018.34 1018.91 1019.40 1019.81 1020.16 1020.49 1021.02 1021.58 1022.11 1022.36 1022.60 1023.02 1023.76 1024.06 1024.79 1025.26 1025.83 1026.32 1026.60 1027.07 1027.24 1027.53 1027.81 1027.96
1008.52 1009.04 1009.75 1010.30 1010.69 1010.97 1011.31 1011.72 1012.09 1012.43 1012.89 1013.56 1014.19 1014.76 1015.19 1015.82 1016.47 1016.94 1017.48 1018.14 1018.71 1019.22 1019.80 1020.31 1020.62 1021.01 1021.71 1022.06 1022.50 1022.82 1023.03 1023.55 1024.10 1024.73 1025.06 1025.55 1026.11 1026.69 1026.91 1027.23 1027.53 1027.82 1028.11
1009.21 1009.68 1010.17 1010.53 1010.94 1011.25 1011.61 1011.86 1012.27 1012.80 1013.34 1013.88 1014.42 1014.91 1015.38 1016.00 1016.57 1017.07 1017.61 1018.18 1018.77 1019.32 1019.94 1020.35 1020.81 1021.19 1021.76 1022.10 1022.49 1022.82 1023.33 1023.71 1024.10 1024.70 1025.24 1025.63 1026.02 1026.54 1026.91 1027.25 1027.52 1027.87 1028.23
1009.71 1010.06 1010.42 1010.81 1011.16 1011.50 1011.87 1012.28 1012.75 1013.23 1013.68 1014.14 1014.59 1015.09 1015.58 1016.09 1016.58 1017.20 1017.84 1018.38 1018.91 1019.36 1019.83 1020.44 1020.87 1021.26 1021.84 1022.31 1022.71 1023.18 1023.58 1024.02 1024.52 1024.92 1025.27 1025.65 1026.13 1026.55 1026.97 1027.26 1027.69 1027.86 1028.22
Thickness
5585 5580 5577 5577 5573 5564 5555 5548 5544 5538 5525 5507 5499 5496 5484 5482 5481 5488 5481 5481 5480 5475 5477 5470 5460 5458 5458 5454 5449 5450 5447 5446 5450 5430 5422 5414 5409 5404 5398 5393 5388 5380 5372
5570 5566 5563 5559 5558 5552 5545 5540 5535 5518 5498 5496 5490 5488 5476 5476 5470 5472 5477 5468 5466 5468 5458 5451 5449 5447 5446 5441 5442 5442 5439 5434 5438 5428 5415 5410 5402 5393 5387 5383 5380 5371 5365
5547 5548 5546 5544 5541 5538 5533 5529 5521 5505 5488 5478 5489 5479 5469 5466 5461 5455 5462 5459 5456 5453 5442 5438 5436 5438 5435 5432 5430 5430 5428 5424 5422 5421 5410 5397 5391 5384 5381 5374 5369 5363 5358
5531 5531 5530 5529 5529 5529 5523 5520 5515 5509 5497 5479 5467 5472 5463 5455 5455 5448 5449 5448 5448 5438 5430 5426 5424 5425 5421 5420 5420 5417 5415 5415 5413 5410 5401 5390 5382 5376 5371 5368 5366 5357 5352
5514 5516 5516 5516 5515 5513 5510 5505 5501 5497 5484 5466 5467 5467 5452 5450 5444 5441 5442 5440 5433 5425 5418 5414 5411 5411 5412 5410 5410 5407 5402 5407 5406 5402 5391 5381 5375 5372 5363 5355 5356 5350 5342
5498 5500 5502 5502 5500 5499 5498 5490 5483 5478 5476 5451 5455 5463 5445 5437 5432 5436 5428 5429 5424 5414 5408 5404 5399 5397 5400 5399 5395 5392 5396 5396 5396 5392 5382 5375 5364 5360 5354 5351 5351 5348 5348
5483 5491 5491 5488 5489 5487 5484 5481 5468 5464 5460 5453 5447 5450 5441 5437 5428 5426 5423 5420 5410 5403 5400 5397 5393 5390 5392 5388 5383 5381 5381 5381 5386 5382 5374 5369 5362 5355 5347 5348 5345 5343 5336
5484 5479 5483 5481 5476 5471 5472 5464 5459 5454 5448 5443 5438 5439 5430 5425 5425 5420 5419 5411 5396 5391 5390 5391 5389 5381 5383 5381 5378 5375 5369 5368 5367 5365 5359 5355 5350 5347 5342 5342 5339 5335 5329
5484 5478 5480 5472 5470 5465 5463 5457 5453 5447 5440 5436 5434 5428 5418 5412 5414 5408 5410 5399 5391 5385 5381 5381 5379 5374 5372 5371 5367 5363 5362 5361 5354 5350 5349 5342 5339 5338 5334 5333 5332 5333 5326
5476 5475 5475 5470 5461 5458 5456 5451 5445 5440 5434 5429 5421 5413 5410 5410 5402 5394 5395 5393 5387 5377 5371 5372 5368 5366 5366 5360 5362 5357 5356 5354 5349 5344 5338 5332 5327 5325 5324 5321 5321 5322 5317
5466 5465 5463 5461 5456 5451 5444 5438 5436 5431 5423 5415 5407 5402 5400 5396 5393 5387 5382 5381 5376 5369 5363 5361 5360 5355 5353 5352 5350 5348 5348 5343 5341 5337 5329 5324 5317 5313 5310 5307 5305 5305 5305
5456 5455 5448 5448 5450 5443 5435 5428 5422 5417 5410 5405 5399 5393 5389 5385 5381 5375 5373 5372 5367 5366 5360 5356 5352 5349 5348 5341 5337 5334 5332 5331 5334 5328 5321 5315 5310 5305 5299 5295 5292 5288 5286
5444 5445 5440 5437 5435 5431 5427 5419 5414 5408 5404 5395 5388 5381 5378 5371 5369 5366 5362 5358 5356 5355 5354 5350 5342 5340 5336 5329 5328 5322 5320 5322 5324 5320 5314 5306 5300 5293 5286 5281 5278 5273 5268
5430 5431 5430 5428 5424 5419 5415 5412 5408 5398 5391 5390 5385 5379 5372 5364 5361 5359 5354 5350 5346 5344 5338 5338 5334 5332 5327 5322 5316 5311 5313 5313 5313 5311 5303 5294 5288 5285 5282 5276 5271 5266 5262
5418 5422 5422 5419 5417 5409 5404 5405 5402 5395 5395 5393 5385 5377 5368 5362 5358 5354 5348 5345 5342 5336 5331 5327 5322 5320 5315 5312 5305 5303 5304 5302 5300 5295 5289 5283 5279 5274 5269 5264 5261 5257 5253
5413 5413 5413 5412 5404 5399 5394 5390 5389 5388 5381 5379 5372 5366 5363 5354 5348 5347 5341 5336 5332 5326 5324 5320 5314 5313 5308 5303 5298 5296 5295 5292 5289 5283 5277 5273 5269 5262 5258 5253 5248 5244 5244
5405 5404 5401 5400 5394 5392 5390 5388 5385 5374 5370 5363 5358 5356 5350 5347 5343 5340 5335 5329 5323 5319 5316 5310 5306 5305 5298 5294 5291 5289 5285 5282 5275 5271 5266 5261 5255 5251 5242 5241 5237 5233 5228
5394 5393 5391 5388 5386 5385 5385 5381 5377 5373 5365 5354 5347 5344 5339 5335 5335 5330 5326 5322 5316 5310 5307 5303 5299 5294 5288 5286 5284 5280 5275 5269 5264 5259 5252 5248 5242 5238 5233 5227 5222 5218 5216
5382 5382 5382 5380 5377 5374 5372 5368 5364 5359 5352 5345 5337 5332 5329 5327 5325 5321 5317 5315 5310 5303 5297 5294 5290 5285 5280 5278 5275 5271 5265 5259 5253 5246 5240 5232 5226 5226 5225 5215 5210 5203 5198
5374 5372 5374 5371 5366 5363 5360 5356 5354 5347 5340 5337 5333 5329 5325 5323 5319 5314 5310 5305 5301 5296 5290 5287 5282 5277 5273 5269 5264 5259 5252 5246 5240 5233 5228 5220 5214 5210 5204 5202 5195 5193 5188
5365 5361 5359 5361 5357 5355 5353 5350 5342 5338 5336 5329 5326 5323 5320 5317 5313 5308 5303 5295 5290 5286 5280 5276 5272 5267 5262 5258 5254 5249 5243 5236 5226 5222 5214 5207 5195 5195 5190 5186 5182 5177 5173
5356 5353 5352 5348 5346 5346 5344 5341 5337 5331 5327 5324 5319 5315 5311 5308 5304 5299 5292 5286 5281 5276 5271 5267 5263 5258 5253 5250 5244 5236 5228 5222 5215 5209 5197 5192 5185 5183 5175 5171 5167 5163 5158
5350 5345 5340 5337 5335 5333 5331 5328 5326 5324 5320 5316 5310 5306 5302 5298 5293 5288 5282 5276 5270 5265 5261 5257 5253 5247 5240 5233 5228 5224 5217 5207 5202 5192 5186 5179 5173 5168 5161 5157 5152 5146 5141
5340 5336 5330 5326 5324 5323 5321 5318 5317 5314 5311 5306 5302 5297 5294 5288 5282 5278 5273 5267 5261 5255 5249 5243 5238 5232 5223 5217 5210 5204 5200 5193 5186 5178 5173 5166 5159 5151 5147 5141 5135 5129 5124
5330 5326 5323 5321 5318 5316 5313 5312 5309 5304 5300 5295 5290 5286 5282 5276 5271 5266 5261 5254 5247 5241 5234 5227 5220 5213 5205 5200 5195 5190 5184 5179 5172 5164 5157 5150 5143 5136 5130 5124 5118 5112 5106
5321 5319 5316 5313 5310 5307 5304 5301 5297 5293 5289 5285 5280 5275 5271 5265 5260 5252 5245 5238 5231 5225 5219 5210 5204 5198 5191 5184 5179 5174 5168 5162 5154 5146 5139 5132 5125 5119 5112 5107 5100 5096 5090